,,,PA_Meas_PMT16A,,PR_Meas_QMR101_102,,RH_Meas_QMH101,,SR_Meas_QMS101,,TA_Meas_QMH101,,GenWind,,GenWind,
date,time,status,PA,status,PR,status,RH,status,SR,status,TA,status,DirAvg,status,SpdAvg,
2014-04-14, 00:00:04,VALID,1011.03,VALID,0,VALID,104,VALID,0,VALID,24.2981,VALID,79,VALID,0,
2014-04-14, 00:01:04,VALID,1011.03,VALID,0,VALID,104,VALID,0,VALID,24.2786,VALID,79,VALID,0,
2014-04-14, 00:02:04,VALID,1011.03,VALID,0,VALID,104,VALID,0,VALID,24.2591,VALID,79,VALID,0,
2014-04-14, 00:03:04,VALID,1011.03,VALID,0,VALID,104,VALID,0,VALID,24.2591,VALID,79,VALID,0,
2014-04-14, 00:04:04,VALID,1011.01,VALID,0,VALID,104,VALID,0,VALID,24.2981,VALID,79,VALID,0,
2014-04-14, 00:05:04,VALID,1011.01,VALID,0,VALID,104,VALID,0,VALID,24.3761,VALID,79,VALID,0,
2014-04-14, 00:06:04,VALID,1011.04,VALID,0,VALID,104,VALID,0,VALID,24.4345,VALID,79,VALID,0,
2014-04-14, 00:07:04,VALID,1011.05,VALID,0,VALID,104,VALID,0,VALID,24.4717,VALID,79,VALID,0,
2014-04-14, 00:08:04,VALID,1011.03,VALID,0,VALID,104,VALID,0,VALID,24.493,VALID,79,VALID,0,
2014-04-14, 00:09:04,VALID,1011.04,VALID,0,VALID,104,VALID,0,VALID,24.532,VALID,79,VALID,0,
2014-04-14, 00:10:04,VALID,1011.02,VALID,0,INVALID,109.025,VALID,0,VALID,24.532,VALID,79,VALID,0,
2014-04-14, 00:11:04,VALID,1011,VALID,0,INVALID,109.094,VALID,0,VALID,24.5301,VALID,79,VALID,0,
2014-04-14, 00:12:04,VALID,1010.98,VALID,0,INVALID,109.147,VALID,0,VALID,24.571,VALID,79,VALID,0,
2014-04-14, 00:13:04,VALID,1010.96,VALID,0,INVALID,109.216,VALID,0,VALID,24.5496,VALID,79,VALID,0,
2014-04-14, 00:14:04,VALID,1010.97,VALID,0,INVALID,109.308,VALID,0,VALID,24.571,VALID,79,VALID,0,
2014-04-14, 00:15:04,VALID,1010.96,VALID,0,INVALID,109.452,VALID,0,VALID,24.571,VALID,79,VALID,0,
2014-04-14, 00:16:04,VALID,1010.95,VALID,0,INVALID,109.529,VALID,0,VALID,24.5923,VALID,79,VALID,0,
2014-04-14, 00:17:04,VALID,1010.94,VALID,0,INVALID,109.59,VALID,0,VALID,24.571,VALID,79,VALID,0,
2014-04-14, 00:18:04,VALID,1010.92,VALID,0,INVALID,109.635,VALID,0,VALID,24.5515,VALID,79,VALID,0,
2014-04-14, 00:19:04,VALID,1010.9,VALID,0,INVALID,109.689,VALID,0,VALID,24.5515,VALID,79,VALID,0,
2014-04-14, 00:20:04,VALID,1010.88,VALID,0,INVALID,109.689,VALID,0,VALID,24.571,VALID,79,VALID,0,
2014-04-14, 00:21:04,VALID,1010.86,VALID,0,INVALID,109.689,VALID,0,VALID,24.5515,VALID,79,VALID,0,
2014-04-14, 00:22:04,VALID,1010.84,VALID,0,INVALID,109.704,VALID,0,VALID,24.532,VALID,79,VALID,0,
2014-04-14, 00:23:04,VALID,1010.8,VALID,0,INVALID,109.689,VALID,0,VALID,24.5125,VALID,79,VALID,0,
2014-04-14, 00:24:04,VALID,1010.81,VALID,0,INVALID,109.696,VALID,0,VALID,24.4735,VALID,79,VALID,0,
2014-04-14, 00:25:04,VALID,1010.79,VALID,0,INVALID,109.681,VALID,0,VALID,24.4735,VALID,79,VALID,0,
2014-04-14, 00:26:04,VALID,1010.76,VALID,0,INVALID,109.658,VALID,0,VALID,24.454,VALID,79,VALID,0,
2014-04-14, 00:27:04,VALID,1010.75,VALID,0,INVALID,109.712,VALID,0,VALID,24.454,VALID,79,VALID,0,
2014-04-14, 00:28:04,VALID,1010.73,VALID,0,INVALID,109.742,VALID,0,VALID,24.4735,VALID,79,VALID,0,
2014-04-14, 00:29:04,VALID,1010.72,VALID,0,INVALID,109.803,VALID,0,VALID,24.4735,VALID,79,VALID,0,
2014-04-14, 00:30:04,VALID,1010.71,VALID,0,INVALID,109.834,VALID,0,VALID,24.454,VALID,79,VALID,0,
2014-04-14, 00:31:04,VALID,1010.69,VALID,0,INVALID,109.826,VALID,0,VALID,24.4345,VALID,79,VALID,0,
2014-04-14, 00:32:04,VALID,1010.68,VALID,0,INVALID,109.811,VALID,0,VALID,24.3956,VALID,79,VALID,0,
2014-04-14, 00:33:04,VALID,1010.66,VALID,0,INVALID,109.857,VALID,0,VALID,24.3761,VALID,79,VALID,0,
2014-04-14, 00:34:04,VALID,1010.63,VALID,0,INVALID,109.948,VALID,0,VALID,24.3761,VALID,79,VALID,0,
2014-04-14, 00:35:04,VALID,1010.62,VALID,0,INVALID,109.994,VALID,0,VALID,24.3761,VALID,79,VALID,0,
2014-04-14, 00:36:04,VALID,1010.57,VALID,0,INVALID,110.032,VALID,0,VALID,24.3566,VALID,79,VALID,0,
2014-04-14, 00:37:04,VALID,1010.54,VALID,0,INVALID,110.055,VALID,0,VALID,24.3566,VALID,79,VALID,0,
2014-04-14, 00:38:04,VALID,1010.53,VALID,0,INVALID,110.078,VALID,0,VALID,24.3371,VALID,79,VALID,0,
2014-04-14, 00:39:04,VALID,1010.53,VALID,0,INVALID,110.131,VALID,0,VALID,24.3371,VALID,79,VALID,0,
2014-04-14, 00:40:04,VALID,1010.5,VALID,0,INVALID,110.154,VALID,0,VALID,24.3176,VALID,79,VALID,0,
2014-04-14, 00:41:04,VALID,1010.47,VALID,0,INVALID,110.154,VALID,0,VALID,24.2786,VALID,79,VALID,0,
2014-04-14, 00:42:04,VALID,1010.44,VALID,0,INVALID,110.169,VALID,0,VALID,24.2591,VALID,79,VALID,0,
2014-04-14, 00:43:04,VALID,1010.44,VALID,0,INVALID,110.2,VALID,0.112112,VALID,24.2378,VALID,79,VALID,0,
2014-04-14, 00:44:04,VALID,1010.38,VALID,0,INVALID,110.215,VALID,0.112112,VALID,24.2573,VALID,79,VALID,0,
2014-04-14, 00:45:04,VALID,1010.44,VALID,0,INVALID,110.192,VALID,0.112112,VALID,24.2963,VALID,79,VALID,0,
2014-04-14, 00:46:04,VALID,1010.39,VALID,0,INVALID,110.2,VALID,0,VALID,24.3761,VALID,79,VALID,0,
2014-04-14, 00:47:04,VALID,1010.37,VALID,0,INVALID,110.238,VALID,0.112112,VALID,24.3937,VALID,79,VALID,0,
2014-04-14, 00:48:04,VALID,1010.4,VALID,0,INVALID,110.276,VALID,0.112112,VALID,24.3937,VALID,79,VALID,0,
2014-04-14, 00:49:04,VALID,1010.38,VALID,0,INVALID,110.299,VALID,0.112112,VALID,24.3937,VALID,79,VALID,0,
2014-04-14, 00:50:04,VALID,1010.37,VALID,0,INVALID,110.299,VALID,0.112112,VALID,24.4132,VALID,79,VALID,0,
2014-04-14, 00:51:04,VALID,1010.41,VALID,0,INVALID,110.284,VALID,0.112112,VALID,24.4113,VALID,79,VALID,0,
2014-04-14, 00:52:04,VALID,1010.38,VALID,0,INVALID,110.322,VALID,0.112112,VALID,24.4522,VALID,79,VALID,0,
2014-04-14, 00:53:04,VALID,1010.38,VALID,0,INVALID,110.329,VALID,0.112112,VALID,24.4717,VALID,79,VALID,0,
2014-04-14, 00:54:04,VALID,1010.36,VALID,0,INVALID,110.329,VALID,0.112112,VALID,24.4717,VALID,79,VALID,0,
2014-04-14, 00:55:04,VALID,1010.34,VALID,0,INVALID,110.345,VALID,0.112112,VALID,24.4911,VALID,79,VALID,0,
2014-04-14, 00:56:04,VALID,1010.32,VALID,0,INVALID,110.375,VALID,0.112112,VALID,24.4911,VALID,79,VALID,0,
2014-04-14, 00:57:04,VALID,1010.31,VALID,0,INVALID,110.398,VALID,0.112112,VALID,24.4911,VALID,79,VALID,0,
2014-04-14, 00:58:04,VALID,1010.34,VALID,0,INVALID,110.429,VALID,0,VALID,24.4735,VALID,79,VALID,0,
2014-04-14, 00:59:04,VALID,1010.3,VALID,0,INVALID,110.444,VALID,0,VALID,24.4735,VALID,79,VALID,0,
2014-04-14, 01:00:04,VALID,1010.32,VALID,0,INVALID,110.451,VALID,0,VALID,24.4735,VALID,79,VALID,0,
2014-04-14, 01:01:04,VALID,1010.28,VALID,0,INVALID,110.451,VALID,0,VALID,24.454,VALID,79,VALID,0,
2014-04-14, 01:02:04,VALID,1010.29,VALID,0,INVALID,110.429,VALID,0,VALID,24.4735,VALID,79,VALID,0,
2014-04-14, 01:03:04,VALID,1010.27,VALID,0,INVALID,110.429,VALID,0,VALID,24.454,VALID,79,VALID,0,
2014-04-14, 01:04:04,VALID,1010.28,VALID,0,INVALID,110.421,VALID,0,VALID,24.454,VALID,79,VALID,0,
2014-04-14, 01:05:04,VALID,1010.27,VALID,0,INVALID,110.413,VALID,0,VALID,24.4345,VALID,79,VALID,0,
2014-04-14, 01:06:04,VALID,1010.26,VALID,0,INVALID,110.39,VALID,0,VALID,24.4345,VALID,79,VALID,0,
2014-04-14, 01:07:04,VALID,1010.27,VALID,0,INVALID,110.383,VALID,0.112112,VALID,24.4345,VALID,79,VALID,0,
2014-04-14, 01:08:04,VALID,1010.3,VALID,0,INVALID,110.375,VALID,0,VALID,24.4345,VALID,79,VALID,0,
2014-04-14, 01:09:04,VALID,1010.3,VALID,0,INVALID,110.368,VALID,0,VALID,24.4345,VALID,79,VALID,0,
2014-04-14, 01:10:04,VALID,1010.31,VALID,0,INVALID,110.329,VALID,0,VALID,24.4559,VALID,79,VALID,0,
2014-04-14, 01:11:04,VALID,1010.32,VALID,0,INVALID,110.314,VALID,0,VALID,24.415,VALID,79,VALID,0,
2014-04-14, 01:12:04,VALID,1010.31,VALID,0,INVALID,110.284,VALID,0,VALID,24.415,VALID,79,VALID,0,
2014-04-14, 01:13:04,VALID,1010.32,VALID,0,INVALID,110.246,VALID,0,VALID,24.415,VALID,79,VALID,0,
2014-04-14, 01:14:04,VALID,1010.32,VALID,0,INVALID,110.261,VALID,0,VALID,24.3956,VALID,79,VALID,0,
2014-04-14, 01:15:04,VALID,1010.32,VALID,0,INVALID,110.238,VALID,0,VALID,24.3956,VALID,79,VALID,0,
2014-04-14, 01:16:04,VALID,1010.35,VALID,0,INVALID,110.261,VALID,0,VALID,24.4169,VALID,79,VALID,0,
2014-04-14, 01:17:04,VALID,1010.37,VALID,0,INVALID,110.261,VALID,0,VALID,24.3956,VALID,79,VALID,0,
2014-04-14, 01:18:04,VALID,1010.36,VALID,0,INVALID,110.291,VALID,0,VALID,24.3956,VALID,79,VALID,0,
2014-04-14, 01:19:04,VALID,1010.34,VALID,0,INVALID,110.307,VALID,0,VALID,24.3956,VALID,79,VALID,0,
2014-04-14, 01:20:04,VALID,1010.33,VALID,0,INVALID,110.299,VALID,0,VALID,24.3547,VALID,79,VALID,0,
2014-04-14, 01:21:04,VALID,1010.32,VALID,0,INVALID,110.307,VALID,0,VALID,24.3761,VALID,79,VALID,0,
2014-04-14, 01:22:04,VALID,1010.29,VALID,0,INVALID,110.307,VALID,0,VALID,24.3566,VALID,79,VALID,0,
2014-04-14, 01:23:04,VALID,1010.25,VALID,0,INVALID,110.299,VALID,0,VALID,24.3566,VALID,79,VALID,0,
2014-04-14, 01:24:04,VALID,1010.25,VALID,0,INVALID,110.337,VALID,0,VALID,24.3371,VALID,79,VALID,0,
2014-04-14, 01:25:04,VALID,1010.22,VALID,0,INVALID,110.314,VALID,0,VALID,24.3371,VALID,79,VALID,0,
2014-04-14, 01:26:04,VALID,1010.24,VALID,0,INVALID,110.368,VALID,0,VALID,24.3176,VALID,79,VALID,0,
2014-04-14, 01:27:04,VALID,1010.25,VALID,0,INVALID,110.383,VALID,0,VALID,24.3176,VALID,79,VALID,0,
2014-04-14, 01:28:04,VALID,1010.22,VALID,0,INVALID,110.36,VALID,0,VALID,24.2981,VALID,79,VALID,0,
2014-04-14, 01:29:04,VALID,1010.22,VALID,0,INVALID,110.383,VALID,0.112112,VALID,24.2786,VALID,79,VALID,0,
2014-04-14, 01:30:04,VALID,1010.25,VALID,0,INVALID,110.406,VALID,0,VALID,24.2981,VALID,79,VALID,0,
2014-04-14, 01:31:04,VALID,1010.24,VALID,0,INVALID,110.436,VALID,0,VALID,24.3176,VALID,79,VALID,0,
2014-04-14, 01:32:04,VALID,1010.22,VALID,0,INVALID,110.474,VALID,0,VALID,24.3371,VALID,79,VALID,0,
2014-04-14, 01:33:04,VALID,1010.24,VALID,0,INVALID,110.49,VALID,0,VALID,24.3566,VALID,79,VALID,0,
2014-04-14, 01:34:04,VALID,1010.21,VALID,0,INVALID,110.52,VALID,0,VALID,24.3956,VALID,79,VALID,0,
2014-04-14, 01:35:04,VALID,1010.24,VALID,0,INVALID,110.528,VALID,0.112112,VALID,24.3956,VALID,79,VALID,0,
2014-04-14, 01:36:04,VALID,1010.24,VALID,0,INVALID,110.482,VALID,0,VALID,24.3956,VALID,79,VALID,0,
2014-04-14, 01:37:04,VALID,1010.23,VALID,0,INVALID,110.429,VALID,0,VALID,24.3956,VALID,79,VALID,0,
2014-04-14, 01:38:04,VALID,1010.25,VALID,0,INVALID,110.39,VALID,0,VALID,24.3956,VALID,79,VALID,0,
2014-04-14, 01:39:04,VALID,1010.21,VALID,0,INVALID,110.36,VALID,0,VALID,24.3761,VALID,79,VALID,0,
2014-04-14, 01:40:04,VALID,1010.21,VALID,0,INVALID,110.276,VALID,0,VALID,24.3566,VALID,79,VALID,0,
2014-04-14, 01:41:04,VALID,1010.18,VALID,0,INVALID,110.215,VALID,0,VALID,24.3371,VALID,79,VALID,0,
2014-04-14, 01:42:04,VALID,1010.15,VALID,0,INVALID,110.154,VALID,0,VALID,24.2981,VALID,79,VALID,0,
2014-04-14, 01:43:04,VALID,1010.12,VALID,0,INVALID,110.215,VALID,0,VALID,24.3176,VALID,79,VALID,0,
2014-04-14, 01:44:04,VALID,1010.15,VALID,0,INVALID,110.276,VALID,0,VALID,24.3176,VALID,79,VALID,0,
2014-04-14, 01:45:04,VALID,1010.15,VALID,0,INVALID,110.307,VALID,0,VALID,24.3176,VALID,79,VALID,0,
2014-04-14, 01:46:04,VALID,1010.15,VALID,0,INVALID,110.39,VALID,0,VALID,24.3371,VALID,79,VALID,0,
2014-04-14, 01:47:04,VALID,1010.17,VALID,0,INVALID,110.406,VALID,0,VALID,24.3158,VALID,79,VALID,0,
2014-04-14, 01:48:04,VALID,1010.18,VALID,0,INVALID,110.39,VALID,0,VALID,24.3176,VALID,79,VALID,0,
2014-04-14, 01:49:04,VALID,1010.19,VALID,0,INVALID,110.352,VALID,0,VALID,24.2786,VALID,79,VALID,0,
2014-04-14, 01:50:04,VALID,1010.18,VALID,0,INVALID,110.322,VALID,0,VALID,24.2591,VALID,79,VALID,0,
2014-04-14, 01:51:04,VALID,1010.18,VALID,0,INVALID,110.368,VALID,0,VALID,24.2573,VALID,79,VALID,0,
2014-04-14, 01:52:04,VALID,1010.17,VALID,0,INVALID,110.398,VALID,0,VALID,24.2396,VALID,79,VALID,0,
2014-04-14, 01:53:04,VALID,1010.15,VALID,0,INVALID,110.421,VALID,0,VALID,24.2396,VALID,79,VALID,0,
2014-04-14, 01:54:04,VALID,1010.14,VALID,0,INVALID,110.459,VALID,0,VALID,24.2396,VALID,79,VALID,0,
2014-04-14, 01:55:04,VALID,1010.12,VALID,0,INVALID,110.497,VALID,0,VALID,24.2007,VALID,79,VALID,0,
2014-04-14, 01:56:04,VALID,1010.1,VALID,0,INVALID,110.528,VALID,0,VALID,24.2007,VALID,79,VALID,0,
2014-04-14, 01:57:04,VALID,1010.08,VALID,0,INVALID,110.543,VALID,0,VALID,24.2007,VALID,79,VALID,0,
2014-04-14, 01:58:04,VALID,1010.01,VALID,0,INVALID,110.558,VALID,0,VALID,24.1812,VALID,79,VALID,0,
2014-04-14, 01:59:04,VALID,1009.99,VALID,0,INVALID,110.581,VALID,0,VALID,24.1617,VALID,79,VALID,0,
2014-04-14, 02:00:04,VALID,1009.98,VALID,0,INVALID,110.589,VALID,0,VALID,24.1617,VALID,79,VALID,0,
2014-04-14, 02:01:04,VALID,1009.93,VALID,0,INVALID,110.589,VALID,0.112112,VALID,24.1014,VALID,79,VALID,0,
2014-04-14, 02:02:04,VALID,1009.91,VALID,0,INVALID,110.573,VALID,0,VALID,24.1032,VALID,79,VALID,0,
2014-04-14, 02:03:04,VALID,1009.89,VALID,0,INVALID,110.573,VALID,0,VALID,24.0643,VALID,79,VALID,0,
2014-04-14, 02:04:04,VALID,1009.86,VALID,0,INVALID,110.566,VALID,0,VALID,24.0448,VALID,79,VALID,0,
2014-04-14, 02:05:04,VALID,1009.85,VALID,0,INVALID,110.596,VALID,0,VALID,24.0448,VALID,79,VALID,0,
2014-04-14, 02:06:04,VALID,1009.84,VALID,0,INVALID,110.642,VALID,0,VALID,24.004,VALID,79,VALID,0,
2014-04-14, 02:07:04,VALID,1009.85,VALID,0,INVALID,110.673,VALID,0,VALID,24.0058,VALID,79,VALID,0,
2014-04-14, 02:08:04,VALID,1009.84,VALID,0,INVALID,110.68,VALID,0,VALID,23.9863,VALID,79,VALID,0,
2014-04-14, 02:09:04,VALID,1009.85,VALID,0,INVALID,110.68,VALID,0,VALID,23.9668,VALID,79,VALID,0,
2014-04-14, 02:10:04,VALID,1009.85,VALID,0,INVALID,110.718,VALID,0,VALID,23.9473,VALID,79,VALID,0,
2014-04-14, 02:11:04,VALID,1009.86,VALID,0,INVALID,110.726,VALID,0.112112,VALID,23.9065,VALID,79,VALID,0,
2014-04-14, 02:12:04,VALID,1009.88,VALID,0,INVALID,110.749,VALID,0,VALID,23.9084,VALID,79,VALID,0,
2014-04-14, 02:13:04,VALID,1009.89,VALID,0,INVALID,110.749,VALID,0,VALID,23.8694,VALID,79,VALID,0,
2014-04-14, 02:14:04,VALID,1009.87,VALID,0,INVALID,110.779,VALID,0,VALID,23.8694,VALID,79,VALID,0,
2014-04-14, 02:15:04,VALID,1009.84,VALID,0,INVALID,110.802,VALID,0,VALID,23.8304,VALID,79,VALID,0,
2014-04-14, 02:16:04,VALID,1009.83,VALID,0,INVALID,110.81,VALID,0,VALID,23.8109,VALID,79,VALID,0,
2014-04-14, 02:17:04,VALID,1009.83,VALID,0,INVALID,110.817,VALID,0,VALID,23.8109,VALID,79,VALID,0,
2014-04-14, 02:18:04,VALID,1009.85,VALID,0,INVALID,110.825,VALID,0,VALID,23.7914,VALID,79,VALID,0,
2014-04-14, 02:19:04,VALID,1009.83,VALID,0,INVALID,110.848,VALID,0,VALID,23.772,VALID,79,VALID,0,
2014-04-14, 02:20:04,VALID,1009.83,VALID,0,INVALID,110.84,VALID,0,VALID,23.7312,VALID,79,VALID,0,
2014-04-14, 02:21:04,VALID,1009.79,VALID,0,INVALID,110.856,VALID,0,VALID,23.7525,VALID,79,VALID,0,
2014-04-14, 02:22:04,VALID,1009.8,VALID,0,INVALID,110.863,VALID,0,VALID,23.733,VALID,79,VALID,0,
2014-04-14, 02:23:04,VALID,1009.8,VALID,0,INVALID,110.894,VALID,0.112112,VALID,23.7135,VALID,79,VALID,0,
2014-04-14, 02:24:04,VALID,1009.81,VALID,0,INVALID,110.901,VALID,0,VALID,23.6727,VALID,79,VALID,0,
2014-04-14, 02:25:04,VALID,1009.82,VALID,0,INVALID,110.909,VALID,0,VALID,23.694,VALID,79,VALID,0,
2014-04-14, 02:26:04,VALID,1009.81,VALID,0,INVALID,110.917,VALID,0,VALID,23.6338,VALID,79,VALID,0,
2014-04-14, 02:27:04,VALID,1009.85,VALID,0,INVALID,110.924,VALID,0.112112,VALID,23.655,VALID,79,VALID,0,
2014-04-14, 02:28:04,VALID,1009.85,VALID,0,INVALID,110.939,VALID,0,VALID,23.6161,VALID,79,VALID,0,
2014-04-14, 02:29:04,VALID,1009.85,VALID,0,INVALID,110.939,VALID,0,VALID,23.5753,VALID,79,VALID,0,
2014-04-14, 02:30:04,VALID,1009.84,VALID,0,INVALID,110.932,VALID,0,VALID,23.5966,VALID,79,VALID,0,
2014-04-14, 02:31:04,VALID,1009.81,VALID,0,INVALID,110.917,VALID,0,VALID,23.6143,VALID,79,VALID,0,
2014-04-14, 02:32:04,VALID,1009.8,VALID,0,INVALID,110.909,VALID,0,VALID,23.6356,VALID,79,VALID,0,
2014-04-14, 02:33:04,VALID,1009.79,VALID,0,INVALID,110.947,VALID,0.112112,VALID,23.6143,VALID,79,VALID,0,
2014-04-14, 02:34:04,VALID,1009.77,VALID,0,INVALID,110.947,VALID,0,VALID,23.6161,VALID,79,VALID,0,
2014-04-14, 02:35:04,VALID,1009.74,VALID,0,INVALID,110.955,VALID,0,VALID,23.5966,VALID,79,VALID,0,
2014-04-14, 02:36:04,VALID,1009.77,VALID,0,INVALID,110.985,VALID,0,VALID,23.5966,VALID,79,VALID,0,
2014-04-14, 02:37:04,VALID,1009.8,VALID,0,INVALID,110.97,VALID,0,VALID,23.5966,VALID,79,VALID,0,
2014-04-14, 02:38:04,VALID,1009.8,VALID,0,INVALID,110.955,VALID,0,VALID,23.6161,VALID,79,VALID,0,
2014-04-14, 02:39:04,VALID,1009.81,VALID,0,INVALID,110.932,VALID,0,VALID,23.6143,VALID,79,VALID,0,
2014-04-14, 02:40:04,VALID,1009.84,VALID,0,INVALID,110.909,VALID,0,VALID,23.655,VALID,79,VALID,0,
2014-04-14, 02:41:04,VALID,1009.84,VALID,0,INVALID,110.909,VALID,0,VALID,23.6532,VALID,79,VALID,0,
2014-04-14, 02:42:04,VALID,1009.83,VALID,0,INVALID,110.932,VALID,0,VALID,23.6338,VALID,79,VALID,0,
2014-04-14, 02:43:04,VALID,1009.82,VALID,0,INVALID,110.955,VALID,0,VALID,23.6356,VALID,79,VALID,0,
2014-04-14, 02:44:04,VALID,1009.8,VALID,0,INVALID,110.939,VALID,0,VALID,23.655,VALID,79,VALID,0,
2014-04-14, 02:45:04,VALID,1009.8,VALID,0,INVALID,110.939,VALID,0,VALID,23.6338,VALID,79,VALID,0,
2014-04-14, 02:46:04,VALID,1009.77,VALID,0,INVALID,110.932,VALID,0,VALID,23.655,VALID,79,VALID,0,
2014-04-14, 02:47:04,VALID,1009.77,VALID,0,INVALID,110.947,VALID,0.112112,VALID,23.6356,VALID,79,VALID,0,
2014-04-14, 02:48:04,VALID,1009.8,VALID,0,INVALID,110.955,VALID,0,VALID,23.6143,VALID,79,VALID,0,
2014-04-14, 02:49:04,VALID,1009.78,VALID,0,INVALID,110.955,VALID,0,VALID,23.6161,VALID,79,VALID,0,
2014-04-14, 02:50:04,VALID,1009.8,VALID,0,INVALID,110.947,VALID,0,VALID,23.6161,VALID,79,VALID,0,
2014-04-14, 02:51:04,VALID,1009.8,VALID,0,INVALID,110.962,VALID,0,VALID,23.6161,VALID,79,VALID,0,
2014-04-14, 02:52:04,VALID,1009.79,VALID,0,INVALID,110.947,VALID,0.112112,VALID,23.6161,VALID,79,VALID,0,
2014-04-14, 02:53:04,VALID,1009.79,VALID,0,INVALID,110.947,VALID,0,VALID,23.5948,VALID,79,VALID,0,
2014-04-14, 02:54:04,VALID,1009.78,VALID,0,INVALID,110.939,VALID,0,VALID,23.5948,VALID,79,VALID,0,
2014-04-14, 02:55:04,VALID,1009.76,VALID,0,INVALID,110.97,VALID,0.112112,VALID,23.5753,VALID,79,VALID,0,
2014-04-14, 02:56:04,VALID,1009.77,VALID,0,INVALID,110.978,VALID,0.112112,VALID,23.5771,VALID,79,VALID,0,
2014-04-14, 02:57:04,VALID,1009.77,VALID,0,INVALID,110.978,VALID,0,VALID,23.5363,VALID,79,VALID,0,
2014-04-14, 02:58:04,VALID,1009.78,VALID,0,INVALID,111.008,VALID,0,VALID,23.5381,VALID,79,VALID,0,
2014-04-14, 02:59:04,VALID,1009.75,VALID,0,INVALID,111.008,VALID,0.112112,VALID,23.5186,VALID,79,VALID,0,
2014-04-14, 03:00:04,VALID,1009.75,VALID,0,INVALID,110.985,VALID,0.112112,VALID,23.4992,VALID,79,VALID,0,
2014-04-14, 03:01:04,VALID,1009.75,VALID,0,INVALID,111,VALID,0,VALID,23.4779,VALID,79,VALID,0,
2014-04-14, 03:02:04,VALID,1009.74,VALID,0,INVALID,111.008,VALID,0,VALID,23.4797,VALID,79,VALID,0,
2014-04-14, 03:03:04,VALID,1009.75,VALID,0,INVALID,110.978,VALID,0,VALID,23.4797,VALID,79,VALID,0,
2014-04-14, 03:04:04,VALID,1009.74,VALID,0,INVALID,111.008,VALID,0,VALID,23.4797,VALID,79,VALID,0,
2014-04-14, 03:05:04,VALID,1009.75,VALID,0,INVALID,110.993,VALID,0,VALID,23.4602,VALID,79,VALID,0,
2014-04-14, 03:06:04,VALID,1009.74,VALID,0,INVALID,111.016,VALID,0,VALID,23.4602,VALID,79,VALID,0,
2014-04-14, 03:07:04,VALID,1009.76,VALID,0,INVALID,111,VALID,0,VALID,23.4602,VALID,79,VALID,0,
2014-04-14, 03:08:04,VALID,1009.73,VALID,0,INVALID,110.985,VALID,0,VALID,23.4194,VALID,79,VALID,0,
2014-04-14, 03:09:04,VALID,1009.73,VALID,0,INVALID,110.993,VALID,0,VALID,23.4407,VALID,79,VALID,0,
2014-04-14, 03:10:04,VALID,1009.76,VALID,0,INVALID,110.993,VALID,0,VALID,23.4407,VALID,79,VALID,0,
2014-04-14, 03:11:04,VALID,1009.77,VALID,0,INVALID,110.939,VALID,0,VALID,23.4602,VALID,79,VALID,0,
2014-04-14, 03:12:04,VALID,1009.77,VALID,0,INVALID,111,VALID,0,VALID,23.4407,VALID,79,VALID,0,
2014-04-14, 03:13:04,VALID,1009.78,VALID,0,INVALID,111.008,VALID,0,VALID,23.4212,VALID,79,VALID,0,
2014-04-14, 03:14:04,VALID,1009.81,VALID,0,INVALID,111.008,VALID,0,VALID,23.4407,VALID,79,VALID,0,
2014-04-14, 03:15:04,VALID,1009.86,VALID,0,INVALID,111,VALID,0,VALID,23.4407,VALID,79,VALID,0,
2014-04-14, 03:16:04,VALID,1009.89,VALID,0,INVALID,111.008,VALID,0,VALID,23.4602,VALID,79,VALID,0,
2014-04-14, 03:17:04,VALID,1009.89,VALID,0,INVALID,111.016,VALID,0,VALID,23.4602,VALID,79,VALID,0,
2014-04-14, 03:18:04,VALID,1009.86,VALID,0,INVALID,111.016,VALID,0.112112,VALID,23.4797,VALID,79,VALID,0,
2014-04-14, 03:19:04,VALID,1009.86,VALID,0,INVALID,111.023,VALID,0,VALID,23.4602,VALID,79,VALID,0,
2014-04-14, 03:20:04,VALID,1009.83,VALID,0,INVALID,110.993,VALID,0.112112,VALID,23.4584,VALID,79,VALID,0,
2014-04-14, 03:21:04,VALID,1009.82,VALID,0,INVALID,110.993,VALID,0.112112,VALID,23.4779,VALID,79,VALID,0,
2014-04-14, 03:22:04,VALID,1009.81,VALID,0,INVALID,111,VALID,0,VALID,23.5186,VALID,79,VALID,0,
2014-04-14, 03:23:04,VALID,1009.82,VALID,0,INVALID,110.993,VALID,0,VALID,23.5186,VALID,79,VALID,0,
2014-04-14, 03:24:04,VALID,1009.84,VALID,0,INVALID,110.993,VALID,0,VALID,23.5169,VALID,79,VALID,0,
2014-04-14, 03:25:04,VALID,1009.85,VALID,0,INVALID,111.023,VALID,0,VALID,23.5381,VALID,79,VALID,0,
2014-04-14, 03:26:04,VALID,1009.86,VALID,0,INVALID,111.054,VALID,0,VALID,23.5381,VALID,79,VALID,0,
2014-04-14, 03:27:04,VALID,1009.88,VALID,0,INVALID,111.077,VALID,0.112112,VALID,23.5186,VALID,79,VALID,0,
2014-04-14, 03:28:04,VALID,1009.86,VALID,0,INVALID,111.069,VALID,0,VALID,23.5186,VALID,79,VALID,0,
2014-04-14, 03:29:04,VALID,1009.85,VALID,0,INVALID,111.084,VALID,0,VALID,23.4992,VALID,79,VALID,0,
2014-04-14, 03:30:04,VALID,1009.83,VALID,0,INVALID,111.077,VALID,0.112112,VALID,23.5186,VALID,79,VALID,0,
2014-04-14, 03:31:04,VALID,1009.84,VALID,0,INVALID,111.115,VALID,0,VALID,23.5186,VALID,79,VALID,0,
2014-04-14, 03:32:04,VALID,1009.84,VALID,0,INVALID,111.1,VALID,0,VALID,23.4974,VALID,79,VALID,0,
2014-04-14, 03:33:04,VALID,1009.84,VALID,0,INVALID,111.084,VALID,0,VALID,23.4992,VALID,79,VALID,0,
2014-04-14, 03:34:04,VALID,1009.82,VALID,0,INVALID,111.1,VALID,0.112112,VALID,23.4992,VALID,79,VALID,0,
2014-04-14, 03:35:04,VALID,1009.83,VALID,0,INVALID,111.107,VALID,0,VALID,23.4797,VALID,79,VALID,0,
2014-04-14, 03:36:04,VALID,1009.83,VALID,0,INVALID,111.046,VALID,0,VALID,23.4407,VALID,79,VALID,0,
2014-04-14, 03:37:04,VALID,1009.86,VALID,0,INVALID,111.054,VALID,0,VALID,23.4017,VALID,79,VALID,0,
2014-04-14, 03:38:04,VALID,1009.85,VALID,0,INVALID,111.023,VALID,0,VALID,23.3415,VALID,79,VALID,0,
2014-04-14, 03:39:04,VALID,1009.84,VALID,0,INVALID,110.978,VALID,0,VALID,23.3238,VALID,79,VALID,0,
2014-04-14, 03:40:04,VALID,1009.83,VALID,0,INVALID,110.955,VALID,0,VALID,23.2636,VALID,79,VALID,0,
2014-04-14, 03:41:04,VALID,1009.81,VALID,0,INVALID,110.962,VALID,0,VALID,23.2246,VALID,79,VALID,0,
2014-04-14, 03:42:04,VALID,1009.83,VALID,0,INVALID,111,VALID,0,VALID,23.2264,VALID,79,VALID,0,
2014-04-14, 03:43:04,VALID,1009.82,VALID,0,INVALID,111.016,VALID,0.112112,VALID,23.2069,VALID,79,VALID,0,
2014-04-14, 03:44:04,VALID,1009.8,VALID,0,INVALID,111.031,VALID,0,VALID,23.1662,VALID,79,VALID,0,
2014-04-14, 03:45:04,VALID,1009.81,VALID,0,INVALID,111.039,VALID,0,VALID,23.1679,VALID,79,VALID,0,
2014-04-14, 03:46:04,VALID,1009.8,VALID,0,INVALID,111.046,VALID,0,VALID,23.1272,VALID,79,VALID,0,
2014-04-14, 03:47:04,VALID,1009.79,VALID,0,INVALID,111.054,VALID,0,VALID,23.1485,VALID,79,VALID,0,
2014-04-14, 03:48:05,VALID,1009.79,VALID,0,INVALID,111.069,VALID,0.112112,VALID,23.129,VALID,79,VALID,0,
2014-04-14, 03:49:05,VALID,1009.76,VALID,0,INVALID,111.092,VALID,0,VALID,23.1077,VALID,79,VALID,0,
2014-04-14, 03:50:05,VALID,1009.72,VALID,0,INVALID,111.084,VALID,0,VALID,23.09,VALID,79,VALID,0,
2014-04-14, 03:51:05,VALID,1009.73,VALID,0,INVALID,111.092,VALID,0,VALID,23.0493,VALID,79,VALID,0,
2014-04-14, 03:52:05,VALID,1009.71,VALID,0,INVALID,111.115,VALID,0.112112,VALID,23.0298,VALID,79,VALID,0,
2014-04-14, 03:53:05,VALID,1009.73,VALID,0,INVALID,111.084,VALID,0,VALID,23.0493,VALID,79,VALID,0,
2014-04-14, 03:54:05,VALID,1009.76,VALID,0,INVALID,111.077,VALID,0.112112,VALID,23.0298,VALID,79,VALID,0,
2014-04-14, 03:55:05,VALID,1009.75,VALID,0,INVALID,111.092,VALID,0,VALID,23.0298,VALID,79,VALID,0,